Regional Weather Roundup
Issued by NWS

Home | Current Version | Previous Version | Graphics & Text | Print | Product List | Glossary On
Versions: 1 2 3 4 5 6 7 8 9 10 11 12 13 14 15 16 17 18 19 20 21 22 23 24 25 26 27 28 29 30 31 32 33 34 35 36 37 38 39 40 41 42 43 44 45 46 47 48 49 50
000
ASUS43 KFSD 240502
RWRSD

WEATHER ROUNDUP FOR SOUTH DAKOTA
NATIONAL WEATHER SERVICE SIOUX FALLS SD
1100 PM CST SUN NOV 23 2014

NOTE: "FAIR" INDICATES FEW OR NO CLOUDS BELOW 12,000 FEET WITH NO
SIGNIFICANT WEATHER AND/OR OBSTRUCTIONS TO VISIBILITY.


SDZ001>005-009-010-012>017-240600-
NORTHWEST AND NORTH CENTRAL SOUTH DAKOTA

CITY           SKY/WX    TMP DP  RH WIND       PRES   REMARKS
BUFFALO          N/A     20  15  81 W15       29.69R WCI   6
FAITH            N/A     22  15  75 NW23      29.71S WCI   6
MOBRIDGE       CLOUDY    24  16  71 NW23G31   29.65F WCI   9
$$

SDZ012>016-024>037-041>051-057-063-072>074-240600-
SOUTHWEST AND SOUTH CENTRAL SOUTH DAKOTA

CITY           SKY/WX    TMP DP  RH WIND       PRES   REMARKS
RAPID CTY ARPT CLOUDY    34  19  54 NW30G36   29.72R WCI  20
PIERRE         MOCLDY    26  17  68 NW25G33   29.67S WCI  11
CUSTER         CLEAR     26  12  55 NW14G21   29.68S WCI  14
ELLSWORTH AFB  MOCLDY    34  20  57 N30G37    29.70R WCI  20
PHILIP         PTCLDY   N/A N/A N/A NW18G25   29.73R
PINE RIDGE     CLOUDY    34  22  61 W10       29.73F WCI  26
WINNER         CLOUDY    29  19  66 NW25G35   29.67S WCI  14
$$

SDZ004>011-016>023-039-040-240600-
NORTHEAST SOUTH DAKOTA

CITY           SKY/WX    TMP DP  RH WIND       PRES   REMARKS
ABERDEEN       CLOUDY    20  12  71 N24G30    29.64S WCI   3
WATERTOWN      CLOUDY    19  13  77 NW24G31   29.53S WCI   2
SISSETON         N/A     20  15  81 N24G33    29.55S WCI   3
$$

SDZ017-020-022-023-036>040-048>070-240600-
SOUTHEAST SOUTH DAKOTA

CITY           SKY/WX    TMP DP  RH WIND       PRES   REMARKS
SIOUX FALLS    CLOUDY    26  17  68 NW21G31   29.53F WCI  12
HURON          CLOUDY    23  14  68 N24G35    29.63F WCI   7
MITCHELL       CLOUDY    26  17  68 NW24G31   29.63S WCI  11
YANKTON        CLOUDY    28  19  69 NW20      29.59F WCI  15
$$

ABBREVIATIONS USED IN REMARKS
   TC - TEMPERATURE IN CELSIUS
  WCI - WIND CHILL INDEX
   HX - HEAT INDEX
  VSB - VISIBILITY




USA.gov is the U.S. government's official web portal to all federal, state and local government web resources and services.